Find Aerocube 16B

NORAD ID: 59291 Int'l Des: 2024-053 Owner: AERO Country: US operational
LEOCIRCULAR

当前视图

正在加载3D地球...

About Aerocube 16B

Aerocube 16B (NORAD 59291) is a satellite launched Mar 21, 2024 by AERO of US. It operates in LEO, CIRCULAR orbit with a mass of 10.00 kg.

即将过境

Passes for default location (London). Set your location on the main map for personalized predictions.

高度历史

Loading altitude history...

两行轨道根数

1 59291U 24053D 26195.54628389 .00008180 00000-0 18150-3 0 9993
2 59291 49.9890 185.7425 0003082 71.6730 288.4569 15.44576018125412
Epoch: Jul 14, 2026 • Age: 6 hours

当前状态

高度 431.8 km
远地点 / 近地点 N/A
速度 7.65 km/s
星下点 4.82°N, 34.44°W
发射日期 Mar 21, 2024
运行时间 2.3 years
类型 other

技术详情

分类 Payload
质量 10.00 kg
干质量 10.00 kg
总质量 10.00 kg
长度 2.00 m
直径 1.00 m
跨度 5.00 m
形状 Box + pan
制造商 AERO
平台类型 Cubesat 6U
阶段状态 In Orbit
所有者/国家 AERO/US

Most Searched